Terminal Aerodrome Forecast
Issued by NWS St Louis, MO

Home | Current Version | Previous Version | Text Only | Print | Product List | Glossary On
Versions: 1 2 3 4 5 6 7 8 9 10 11 12 13 14 15 16 17 18 19 20 21 22 23 24 25 26 27 28 29 30
000
FTUS43 KLSX 210307 AAA
TAFSTL
TAF AMD
KSTL 210307Z 2103/2206 15008KT P6SM SCT250
     FM210500 16009KT P6SM OVC015
     FM211800 16012KT P6SM BKN030
     FM220300 16013G20KT 6SM -SHRA OVC015=

USA.gov is the U.S. government's official web portal to all federal, state and local government web resources and services.